[[{"header":{"parameterUnit":"m.s-1","parameterCategory":1,"la1":30.2991,"la2":30.254,"lo1":-89.0895,"lo2":-89.0444,"dy":0.0017,"dx":0.0017,"nx":28,"ny":28,"refTime":"2025-07-17T03:00:00:Z","depth":0,"parameterNumber":2,"parameterNumberName":"U-component_of_WINDS"},"data":[0,0,0,0,0,0,0,0,0,0,0,0,0,0,0,0,0,0,0,0,0,0,0,0,0,0,0,0,0,0,0,0,0,0,0,0,0,0,0,0,0,0,0,0,0,0,0,0,0,0,0,0,0,0,0,0,0,0,-5.5758,-5.5759,0,-5.576,-5.576,-5.576,-5.5777,-5.5777,-5.5778,-5.5778,-5.5773,-5.5772,-5.5771,0,0,0,0,0,0,0,0,0,0,0,0,0,-5.5767,-5.5767,-5.5758,-5.5759,-5.5759,-5.576,-5.576,-5.576,-5.5777,-5.5777,-5.5778,-5.5779,-5.5773,-5.5772,-5.5771,0,0,0,0,0,0,0,0,0,0,0,0,0,-5.5765,-5.5767,-5.5758,-5.5768,-5.5768,-5.576,-5.576,-5.576,-5.5777,-5.5778,-5.5778,-5.5779,-5.5773,-5.5772,-5.5771,-5.5752,0,0,-5.5769,-5.5768,0,0,0,0,0,0,0,0,-5.5765,-5.5765,-5.5766,-5.5767,-5.5768,-5.5769,-5.576,-5.5757,-5.5777,-5.5773,-5.5778,-5.5779,-5.577,-5.577,-5.5768,-5.5752,-5.5751,-5.5769,-5.5768,-5.5768,-5.5767,0,0,0,0,0,0,0,-5.5765,-5.5765,-5.5759,-5.5766,-5.5767,-5.577,-5.577,-5.576,-5.5768,-5.5774,-5.5775,-5.5775,-5.5771,-5.5769,-5.5768,-5.5751,-5.5769,-5.5768,-5.5767,-5.5767,-5.572,-5.5719,0,0,0,0,0,0,-5.5765,-5.5765,-5.5759,-5.5759,-5.5768,-5.5769,-5.577,-5.5768,-5.5768,-5.5769,-5.5775,-5.5776,-5.577,-5.5769,-5.5768,-5.5745,-5.5768,-5.5767,-5.5766,-5.572,-5.5719,-5.5719,0,0,0,0,0,0,-5.5765,-5.5764,-5.5759,-5.5762,-5.5762,-5.5768,-5.5766,-5.5767,-5.5766,-5.5769,-5.577,-5.5772,-5.5771,-5.5769,-5.5756,-5.5745,-5.5766,-5.5766,-5.5721,-5.572,-5.5719,-5.5699,0,0,0,0,0,0,-5.5765,-5.5764,-5.5757,-5.5762,-5.5761,-5.5748,-5.5765,-5.5767,-5.5765,-5.5767,-5.5766,-5.5767,-5.5771,-5.5758,-5.5756,-5.5744,-5.5765,-5.5722,-5.5721,-5.5719,-5.5701,-5.5698,-5.5695,0,0,0,0,0,-5.5765,-5.575,-5.5757,-5.5756,-5.5754,-5.5748,-5.5747,-5.5755,-5.5764,-5.5757,-5.5759,-5.5767,-5.5748,-5.5756,-5.5754,-5.5742,-5.5723,-5.5721,-5.572,-5.5702,-5.5698,-5.5695,0,0,0,0,0,0,-5.5741,-5.5751,-5.5758,-5.5745,-5.5746,-5.5751,-5.5741,-5.575,-5.5746,-5.5748,-5.5756,-5.5755,-5.5741,-5.5741,-5.575,-5.5724,-5.5737,-5.5734,-5.5724,-5.5721,-5.5718,-5.5717,-5.5764,0,0,0,0,0,-5.5735,-5.5731,-5.5739,-5.5726,-5.5726,-5.5734,-5.5731,-5.5738,-5.5738,-5.5737,-5.5739,-5.5737,-5.5731,-5.5726,-5.572,-5.5702,-5.5702,-5.5693,-5.569,-5.5688,-5.5685,-5.5675,-5.5672,-5.5713,-5.5713,-5.5713,0,0,-5.572,-5.5725,-5.5721,-5.5721,-5.5722,-5.5716,-5.5734,-5.5726,-5.5722,-5.5736,-5.5724,-5.5725,-5.5724,-5.5708,-5.5702,-5.5708,-5.5674,-5.5686,-5.5684,-5.5682,-5.5673,-5.5669,-5.5666,-5.5712,-5.5712,-5.5713,0,0,-5.569,-5.5694,-5.5684,-5.5686,-5.5689,-5.5695,-5.5693,-5.5698,-5.57,-5.5689,-5.57,-5.5694,-5.5683,-5.5682,-5.568,-5.5654,-5.566,-5.5652,-5.5634,-5.5625,-5.5622,-5.5619,-5.5608,-5.5605,-5.5649,-5.5649,-5.5649,0,-5.567,-5.5663,-5.5677,-5.567,-5.5669,-5.5686,-5.5675,-5.5675,-5.5675,-5.5674,-5.5682,-5.567,-5.567,-5.5655,-5.5649,-5.5647,-5.5643,-5.565,-5.5622,-5.5619,-5.5616,-5.5606,-5.5602,-5.5648,-5.5648,-5.5648,-5.5649,0,-5.5639,-5.5634,-5.5626,-5.5629,-5.5628,-5.5618,-5.5629,-5.5626,-5.5634,-5.5639,-5.5628,-5.563,-5.5625,-5.5622,-5.5628,-5.5608,-5.5612,-5.5621,-5.5633,-5.5611,-5.5602,-5.5598,-5.5647,-5.5647,-5.5647,-5.5648,0,0,-5.5588,-5.5603,-5.5599,-5.5601,-5.5608,-5.5604,-5.5596,-5.5595,-5.5591,-5.5592,-5.5584,-5.5577,-5.5586,-5.5584,-5.559,-5.5583,-5.5561,-5.5593,-5.5593,-5.5585,-5.5538,-5.5529,-5.5525,-5.5567,-5.5566,-5.5566,-5.5538,0,-5.5558,-5.5547,-5.556,-5.5545,-5.5541,-5.5559,-5.5552,-5.5555,-5.556,-5.5556,-5.5562,-5.5556,-5.5569,-5.5568,-5.5562,-5.5565,-5.5551,-5.5568,-5.5557,-5.5557,-5.5555,-5.552,-5.551,-5.5483,-5.5534,-5.5534,-5.5533,0,-5.552,-5.5522,-5.5508,-5.5518,-5.5517,-5.551,-5.5511,-5.5508,-5.5512,-5.5516,-5.5516,-5.5526,-5.5517,-5.5532,-5.552,-5.5531,-5.5529,-5.553,-5.5529,-5.5526,-5.5541,-5.5513,-5.5475,-5.547,-5.5528,-5.5528,-5.5529,0,-5.5482,-5.5482,-5.5474,-5.5475,-5.5487,-5.5483,-5.5487,-5.5492,-5.5491,-5.5491,-5.5491,-5.5489,-5.5488,-5.5486,-5.5494,-5.5505,-5.5481,-5.5497,-5.5483,-5.5482,-5.5473,-5.5473,-5.5431,-5.5476,-5.5476,-5.5477,-5.5477,0,-5.5445,-5.5435,-5.5457,-5.5452,-5.5441,-5.5458,-5.5446,-5.5452,-5.5457,-5.5452,-5.5468,-5.5462,-5.5476,-5.5471,-5.5478,-5.5467,-5.5466,-5.5468,-5.547,-5.5465,-5.5465,-5.5461,-5.5462,-5.5475,-5.5476,-5.5476,-5.5476,0,-5.5399,-5.5414,-5.5406,-5.542,-5.5423,-5.5415,-5.5426,-5.542,-5.543,-5.5423,-5.5422,-5.5434,-5.5431,-5.5441,-5.5437,-5.5442,-5.5425,-5.5431,-5.5424,-5.5425,-5.541,-5.541,-5.5361,-5.5355,-5.5407,-5.5406,-5.5406,0,-5.5372,-5.5365,-5.538,-5.538,-5.5384,-5.5382,-5.5383,-5.54,-5.5399,-5.5405,-5.5399,-5.5398,-5.5396,-5.5389,-5.5396,-5.5394,-5.5398,-5.5382,-5.5398,-5.5394,-5.5396,-5.5395,-5.5394,-5.5377,-5.5376,-5.5376,-5.5375,0,-5.5322,-5.5332,-5.5333,-5.5337,-5.5338,-5.5342,-5.5346,-5.5344,-5.5363,-5.5361,-5.5359,-5.5359,-5.5358,-5.5356,-5.5356,-5.5359,-5.5369,-5.5372,-5.5368,-5.5361,-5.5357,-5.5357,-5.5413,-5.5371,-5.5372,-5.5372,-5.5372,-5.5372,-5.5283,-5.5279,-5.5289,-5.5291,-5.5297,-5.5302,-5.5298,-5.5309,-5.5308,-5.5311,-5.5321,-5.5317,-5.5323,-5.5326,-5.5328,-5.5324,-5.5331,-5.5326,-5.5324,-5.5322,-5.5319,-5.5361,-5.5324,-5.5324,-5.5325,-5.5325,-5.5325,0,-5.5232,-5.5242,-5.5243,-5.5251,-5.5253,-5.5268,-5.5275,-5.5274,-5.5271,-5.5278,-5.5278,-5.5276,-5.5275,-5.5285,-5.5284,-5.528,-5.5284,-5.5279,-5.5277,-5.5278,-5.5313,-5.5315,-5.5275,-5.5275,-5.5275,-5.5275,-5.5275,-5.5275,-5.5206,-5.5199,-5.521,-5.5207,-5.5216,-5.5215,-5.5217,-5.5222,-5.5227,-5.5226,-5.5226,-5.5234,-5.5241,-5.5243,-5.5242,-5.5245,-5.5243,-5.5235,-5.5238,-5.527,-5.5275,-5.5279,-5.5282,-5.5235,-5.5235,-5.5203,-5.5203,-5.5203]},{"header":{"parameterUnit":"m.s-1","parameterCategory":1,"la1":30.2991,"la2":30.254,"lo1":-89.0895,"lo2":-89.0444,"dy":0.0017,"dx":0.0017,"nx":28,"ny":28,"refTime":"2025-07-17T03:00:00:Z","depth":0,"parameterNumber":3,"parameterNumberName":"V-component_of_WINDS"},"data":[0,0,0,0,0,0,0,0,0,0,0,0,0,0,0,0,0,0,0,0,0,0,0,0,0,0,0,0,0,0,0,0,0,0,0,0,0,0,0,0,0,0,0,0,0,0,0,0,0,0,0,0,0,0,0,0,0,0,3.8457,3.846,0,3.8741,3.8744,3.8748,3.8825,3.8824,3.8822,3.8821,3.9107,3.9116,3.9125,0,0,0,0,0,0,0,0,0,0,0,0,0,3.7979,3.7987,3.8457,3.8461,3.8464,3.8741,3.8745,3.8748,3.8826,3.8824,3.8822,3.882,3.9104,3.9115,3.9125,0,0,0,0,0,0,0,0,0,0,0,0,0,3.8217,3.799,3.8456,3.8536,3.8546,3.874,3.8745,3.8749,3.8826,3.8824,3.8821,3.8819,3.91,3.9113,3.9127,3.926,0,0,3.9169,3.9175,0,0,0,0,0,0,0,0,3.8203,3.8234,3.8521,3.8531,3.8543,3.8746,3.8681,3.8921,3.8827,3.872,3.8821,3.8818,3.8988,3.9011,3.9069,3.9274,3.9286,3.917,3.9178,3.9184,3.9188,0,0,0,0,0,0,0,3.8187,3.8223,3.8569,3.8525,3.8538,3.8557,3.8588,3.8727,3.8864,3.8729,3.8735,3.8768,3.8994,3.9056,3.9077,3.929,3.917,3.9182,3.919,3.9196,3.962,3.9623,0,0,0,0,0,0,3.8157,3.8208,3.856,3.8578,3.8364,3.8568,3.8602,3.8683,3.8863,3.8888,3.877,3.8771,3.9034,3.9061,3.9087,3.9257,3.9184,3.9197,3.9205,3.9617,3.9621,3.9624,0,0,0,0,0,0,3.8147,3.8188,3.8549,3.8395,3.8443,3.8578,3.8668,3.869,3.8752,3.8894,3.8918,3.8809,3.9033,3.9068,3.9218,3.9267,3.9203,3.9216,3.9614,3.9618,3.9623,3.9595,0,0,0,0,0,0,3.8133,3.8184,3.8236,3.8396,3.845,3.8675,3.8671,3.8697,3.8776,3.878,3.8937,3.896,3.9034,3.9197,3.9231,3.9285,3.9226,3.961,3.9616,3.9621,3.9592,3.9598,3.9603,0,0,0,0,0,3.8115,3.8215,3.8238,3.828,3.8519,3.8678,3.8709,3.8793,3.878,3.8834,3.8925,3.8955,3.9256,3.9211,3.9251,3.931,3.9607,3.9614,3.9621,3.959,3.9597,3.9603,0,0,0,0,0,0,3.8055,3.8238,3.8265,3.842,3.8533,3.8691,3.8761,3.8798,3.8916,3.8914,3.9012,3.9047,3.919,3.9265,3.9211,3.9449,3.9432,3.9447,3.9395,3.9403,3.9409,3.9387,3.9238,0,0,0,0,0,3.8061,3.8176,3.8328,3.845,3.8506,3.8623,3.8696,3.8751,3.8871,3.8919,3.9021,3.9136,3.9257,3.9334,3.9453,3.9604,3.9639,3.9664,3.9669,3.9673,3.9685,3.9772,3.9785,3.9647,3.9647,3.9647,0,0,3.8071,3.8185,3.8252,3.8441,3.8535,3.8652,3.8663,3.8785,3.8872,3.8937,3.9086,3.9165,3.9299,3.9451,3.9522,3.9517,3.9731,3.9682,3.9684,3.9694,3.978,3.9793,3.9805,3.9652,3.9651,3.965,0,0,3.8152,3.8249,3.8363,3.8458,3.8601,3.8679,3.8706,3.886,3.8916,3.9067,3.9119,3.9223,3.9429,3.9523,3.9598,3.9717,3.975,3.9753,3.9782,3.9865,3.9876,3.9886,3.993,3.9944,3.9764,3.9764,3.9764,0,3.8147,3.8325,3.8415,3.8537,3.8619,3.8686,3.8801,3.8888,3.9062,3.9117,3.911,3.9372,3.9466,3.9642,3.9671,3.9729,3.9763,3.9735,3.9868,3.9879,3.9889,3.9932,3.9948,3.9764,3.9764,3.9764,3.9764,0,3.8313,3.8436,3.851,3.868,3.877,3.8887,3.8995,3.9076,3.9124,3.9203,3.9356,3.9473,3.9618,3.9664,3.971,3.9846,3.9839,3.9848,3.9833,3.9901,3.9942,3.9959,3.9763,3.9763,3.9763,3.9763,0,0,3.8361,3.8581,3.8607,3.8686,3.885,3.8947,3.9068,3.9211,3.9279,3.9397,3.9501,3.9675,3.9686,3.9771,3.9829,3.9903,3.9991,3.9904,3.9908,3.9916,4.0149,4.0141,4.0158,4.0014,4.0018,4.002,4.0138,0,3.8462,3.8682,3.8768,3.8947,3.9063,3.9129,3.9235,3.9347,3.9424,3.9533,3.9618,3.974,3.9744,3.9796,3.9872,3.9964,4.0039,3.9957,4.0111,4.0116,4.0075,4.018,4.0171,4.0277,4.0155,4.0157,4.016,0,3.8609,3.8732,3.8923,3.9076,3.9127,3.9221,3.9361,3.9464,3.9592,3.9644,3.974,3.9795,3.9924,3.9901,4.008,4.0023,4.0091,4.0146,4.0152,4.0169,4.0141,4.02,4.0312,4.0328,4.0186,4.0184,4.0182,0,3.8626,3.8839,3.8982,3.9047,3.9228,3.9292,3.9371,3.9498,3.9579,3.9701,3.9755,3.9889,3.9963,4.0065,4.0155,4.013,4.0326,4.0311,4.0372,4.037,4.041,4.0406,4.0534,4.0454,4.0453,4.0453,4.0453,0,3.873,3.8844,3.8992,3.9079,3.921,3.9308,3.9434,3.9516,3.9629,3.9733,3.9798,3.9895,4.0007,4.0118,4.0189,4.0327,4.036,4.0404,4.0422,4.0399,4.0393,4.0445,4.044,4.0457,4.0456,4.0456,4.0455,0,3.8771,3.8874,3.9034,3.9194,3.9237,3.9326,3.9463,3.955,3.9632,3.9763,3.9799,3.9927,4.0061,4.0161,4.0333,4.0381,4.0529,4.0547,4.0486,4.0495,4.0551,4.0544,4.0717,4.0745,4.0644,4.0645,4.0646,0,3.883,3.892,3.9091,3.9167,3.9246,3.9366,3.9451,3.9551,3.9636,3.9791,3.986,3.9999,4.0116,4.0327,4.0434,4.0567,4.0589,4.064,4.0609,4.0584,4.0591,4.0584,4.0594,4.0644,4.0645,4.0645,4.0646,0,3.8925,3.8973,3.9093,3.9232,3.9332,3.9446,3.9561,3.9618,3.9739,3.9831,3.9971,4.0061,4.024,4.0377,4.0522,4.0602,4.0644,4.0655,4.0676,4.0654,4.0615,4.0637,4.0498,4.065,4.065,4.0649,4.0649,4.0649,3.8978,3.9062,3.9196,3.9328,3.9426,3.9532,3.9623,3.9717,3.9836,3.999,4.0042,4.0185,4.0314,4.0513,4.0594,4.0708,4.0707,4.0738,4.0746,4.0752,4.0751,4.0597,4.0734,4.0734,4.0734,4.0734,4.0734,0,3.9077,3.9167,3.9288,3.9448,3.9553,3.9586,3.9715,3.98,3.9927,4.0043,4.0158,4.0319,4.0453,4.0572,4.0711,4.0779,4.0803,4.0813,4.0809,4.0827,4.0743,4.0711,4.0792,4.0792,4.0792,4.0792,4.0792,4.0792,3.9141,3.9285,3.9349,3.9542,3.9632,3.9775,3.9846,3.9945,4.0039,4.0216,4.0329,4.0407,4.0525,4.0674,4.0799,4.083,4.0878,4.0884,4.092,4.0839,4.0832,4.0825,4.0796,4.0894,4.0894,4.0995,4.0996,4.0996]}]]